Hourly Data Report for June 26, 2020

TRENTON A
ONTARIO
Current Station Operator: DND

44°07'00.000" N
77°32'00.000" W
86.30 m
6158875
71621
YTR

Download Data

Hourly Data (June 2020)
Hourly Data Report for June 26, 2020
TIME
LST
Temp Definition
°C
Dew Point Definition
°C
Rel Hum Definition
%
Precip. Amount Definition
mm

Wind Dir Definition
10's deg

Wind Spd Definition
km/h
Visibility Definition
km
Stn Press Definition
kPa
Hmdx Definition


Wind Chill Definition


Weather Definition


00:00 16.4 13.4 82   24 5 24.1 100.23     Mainly Clear
01:00 17.8 14.5 81   22 9 24.1 100.24     Mainly Clear
02:00 17.1 14.6 85   22 9 24.1 100.24     Mainly Clear
03:00 17.5 14.4 82   21 9 24.1 100.24     Mainly Clear
04:00 17.5 14.3 82   22 15 24.1 100.26     Mainly Clear
05:00 16.0 13.4 85   31 4 24.1 100.29     Mainly Clear
06:00 18.0 15.2 84   22 9 24.1 100.29     Mainly Clear
07:00 19.6 15.6 78   22 8 24.1 100.28     Mainly Clear
08:00 21.6 15.8 70   23 9 24.1 100.30 26   Mainly Clear
09:00 22.6 15.9 66   20 11 24.1 100.26 27   Mainly Clear
10:00 22.7 14.8 61   21 21 24.1 100.24 27   Mainly Clear
11:00 23.8 14.3 55   21 21 24.1 100.23 27   Mainly Clear
12:00 24.4 12.9 49   21 24 24.1 100.17 27   Mostly Cloudy
13:00 24.7 10.6 41   21 22 24.1 100.14 26   Mostly Cloudy
14:00 26.0 10.6 38   22 24 24.1 100.10 28   Mostly Cloudy
15:00 26.3 11.5 40   23 24 24.1 100.09 28   Mostly Cloudy
16:00 26.8 12.3 41   22 24 24.1 100.06 29   Mostly Cloudy
17:00 27.1 12.8 41   23 22 24.1 100.02 30   Mainly Clear
18:00 26.8 12.6 41   25 30 24.1 100.01 29   Mainly Clear
19:00 25.0 12.5 46   25 22 24.1 100.00 28   Mostly Cloudy
20:00 23.3 12.0 49   24 17 24.1 99.99 26   Mainly Clear
21:00 22.6 11.1 48   24 15 24.1 100.00     Clear
22:00 21.9 11.1 50   23 15 24.1 99.98     Clear
23:00 20.9 12.3 58   22 13 24.1 99.91     Mainly Clear

Notes on Data Quality.

Legend

  • E = Estimated
  • M = Missing
  • NA = Not Available*
  • [empty] = Indicates an unobserved value
Date modified: